Weather reports worldwide

Advertisment
Capo Carbonara, Italy (16564): temperature & dewpoint: 16.07.2019 21:00:00 - 22.07.2019 21:00:00 (CEST)Capo Carbonara, Italy (16564): wind speed: 16.07.2019 21:00:00 - 22.07.2019 21:00:00 (CEST)Capo Carbonara, Italy (16564): wind direction: 16.07.2019 21:00:00 - 22.07.2019 21:00:00 (CEST)Capo Carbonara, Italy (16564): reduced air pressure: 16.07.2019 21:00:00 - 22.07.2019 21:00:00 (CEST)Capo Carbonara, Italy (16564): visibility: 16.07.2019 21:00:00 - 22.07.2019 21:00:00 (CEST)
Date & Time tt [°C] td [°C] ff [km/h] ff [kn] dd ppp [hPa] vv [km]
22.07.2019 21:00:00 27,0 24,0 22 12 WSW - 10
22.07.2019 20:00:00 27,2 24,9 22 12 WSW 1019,4 20
22.07.2019 19:00:00 29,0 26,0 22 12 SW - 10
22.07.2019 18:00:00 30,0 27,0 16 9 SSW - 10
22.07.2019 17:00:00 30,2 26,8 15 8 SSW 1019,8 20
22.07.2019 16:00:00 31,0 26,0 15 8 WSW - 10
22.07.2019 15:00:00 31,0 26,0 16 9 SSW - 10
22.07.2019 14:00:00 29,8 23,3 13 7 SSW 1020,3 20
22.07.2019 13:00:00 29,0 24,0 13 7 SSW - 10
22.07.2019 12:00:00 27,0 24,0 13 7 SSW - 10
22.07.2019 11:00:00 25,4 22,1 11 6 SSW 1021,0 20
22.07.2019 10:00:00 25,0 21,0 8 4 WSW - 10
22.07.2019 09:00:00 24,0 20,0 5 3 W - 10
22.07.2019 08:00:00 24,2 20,6 4 2 S 1021,3 20
22.07.2019 07:00:00 - - - - - - -
22.07.2019 06:00:00 24,0 20,0 8 4 SW - 10
22.07.2019 05:00:00 24,0 20,0 5 3 SW - 10
22.07.2019 04:00:00 24,0 20,0 0 0 N - 10
22.07.2019 03:00:00 24,0 20,0 5 3 SSE - 10
22.07.2019 02:00:00 24,0 20,0 5 3 E - 10
22.07.2019 01:00:00 24,0 21,0 11 6 ENE - 10
22.07.2019 00:00:00 - - - - - - -
21.07.2019 23:00:00 24,0 20,6 15 8 ENE 1020,9 20
21.07.2019 22:00:00 24,0 21,0 22 12 ENE - 10
21.07.2019 21:00:00 25,0 22,0 22 12 E - 10
21.07.2019 20:00:00 26,6 23,9 18 10 E 1020,4 20
21.07.2019 19:00:00 27,0 24,0 22 12 E - 10
21.07.2019 18:00:00 27,0 25,0 24 13 E - 10
21.07.2019 17:00:00 28,0 24,8 29 16 E 1020,6 20
21.07.2019 16:00:00 28,0 24,0 29 16 E - 10
21.07.2019 15:00:00 28,0 24,0 26 14 E - 10
21.07.2019 14:00:00 28,0 24,0 22 12 E - 10
21.07.2019 13:00:00 28,0 24,0 26 14 E - 10
21.07.2019 12:00:00 27,0 24,0 26 14 E - 10
21.07.2019 11:00:00 26,0 22,5 34 18 ENE 1019,8 20
21.07.2019 10:00:00 25,0 21,0 37 20 ENE - 10
21.07.2019 09:00:00 24,0 20,0 29 16 ENE - 10
21.07.2019 08:00:00 24,0 20,3 26 14 NE 1019,3 20
21.07.2019 07:00:00 23,0 19,0 22 12 NE - 10
21.07.2019 06:00:00 23,0 20,0 24 13 NE - 10
21.07.2019 05:00:00 23,4 19,7 22 12 ENE 1018,7 20
21.07.2019 04:00:00 24,0 20,0 21 11 ENE - 10
21.07.2019 03:00:00 24,0 20,0 18 10 E - 10
21.07.2019 02:00:00 24,0 20,3 18 10 ENE 1019,3 20
21.07.2019 01:00:00 24,0 21,0 26 14 ENE - 10
21.07.2019 00:00:00 24,0 21,0 28 15 ENE - 10
20.07.2019 23:00:00 24,6 21,0 28 15 ENE 1018,5 20
20.07.2019 22:00:00 25,0 21,0 28 15 ENE - 10
20.07.2019 21:00:00 25,0 22,0 28 15 ENE - 10
20.07.2019 20:00:00 26,2 23,3 26 14 ENE 1017,8 20
20.07.2019 19:00:00 27,0 24,0 26 14 E - 10
20.07.2019 18:00:00 28,0 25,0 26 14 E - 10
20.07.2019 17:00:00 28,2 25,0 24 13 E 1017,9 20
20.07.2019 16:00:00 29,0 24,0 26 14 E - 10
20.07.2019 15:00:00 29,0 24,0 22 12 E - 10
20.07.2019 14:00:00 28,6 23,5 26 14 E 1017,8 20
20.07.2019 13:00:00 28,0 23,0 26 14 E - 10
20.07.2019 12:00:00 26,0 23,0 28 15 ENE - 10
20.07.2019 11:00:00 25,8 21,9 24 13 E 1017,4 10
20.07.2019 10:00:00 25,0 21,0 24 13 E - 10
20.07.2019 09:00:00 24,0 20,0 16 9 ENE - 10
20.07.2019 08:00:00 23,8 20,0 13 7 E 1016,4 10
20.07.2019 07:00:00 23,0 19,0 16 9 ENE - 10
20.07.2019 06:00:00 23,0 19,0 15 8 ENE - 10
20.07.2019 05:00:00 23,0 19,3 13 7 ENE 1015,8 10
20.07.2019 04:00:00 23,0 19,0 13 7 ENE - 10
20.07.2019 03:00:00 23,0 20,0 13 7 NE - 10
20.07.2019 02:00:00 23,4 19,7 4 2 ENE 1016,1 20
20.07.2019 01:00:00 23,0 20,0 9 5 ENE - 10
20.07.2019 00:00:00 24,0 20,0 5 3 ENE - 10
19.07.2019 23:00:00 24,2 20,7 8 4 E 1015,9 20
19.07.2019 22:00:00 25,0 21,0 8 4 ESE - 10
19.07.2019 21:00:00 26,0 23,0 8 4 SE - 10
19.07.2019 20:00:00 27,6 24,9 5 3 S 1015,2 20
19.07.2019 19:00:00 28,0 25,0 11 6 WNW - 10
19.07.2019 18:00:00 29,0 25,0 13 7 NE - 10
19.07.2019 17:00:00 29,2 25,2 15 8 S 1015,4 20
19.07.2019 16:00:00 30,0 24,0 11 6 SE - 10
19.07.2019 15:00:00 30,0 24,0 18 10 E - 10
19.07.2019 14:00:00 28,2 22,2 16 9 E 1015,6 20
19.07.2019 13:00:00 28,0 23,0 21 11 E - 10
19.07.2019 12:00:00 27,0 24,0 18 10 E - 10
19.07.2019 11:00:00 26,2 22,5 21 11 ENE 1015,4 20
19.07.2019 10:00:00 25,0 21,0 22 12 E - 10
19.07.2019 09:00:00 23,0 19,0 5 3 SSW - 10
19.07.2019 08:00:00 24,0 21,0 8 4 ENE - 10
19.07.2019 07:00:00 - - - - - - -
19.07.2019 06:00:00 23,0 20,0 - - - - -
19.07.2019 05:00:00 24,0 20,0 0 0 N - 10
19.07.2019 04:00:00 - - - - - - -
19.07.2019 03:00:00 24,0 21,0 5 3 ESE - 10
19.07.2019 02:00:00 - - - - - - -
19.07.2019 01:00:00 25,0 21,0 0 0 N - 10
19.07.2019 00:00:00 25,0 21,0 4 2 ENE - 10
18.07.2019 23:00:00 25,0 21,0 4 2 SSE - 10
18.07.2019 22:00:00 - - - - - - -
18.07.2019 21:00:00 25,0 22,0 11 6 ENE - 10
18.07.2019 20:00:00 26,0 24,0 9 5 E - 10
18.07.2019 19:00:00 28,0 25,0 8 4 NE - 10
18.07.2019 18:00:00 28,0 25,0 11 6 NW - 10
18.07.2019 17:00:00 - - - - - - -
18.07.2019 16:00:00 28,0 25,0 15 8 SSW - 10
18.07.2019 15:00:00 27,0 24,0 22 12 NE - 10
18.07.2019 14:00:00 27,0 23,0 22 12 W - 10
18.07.2019 13:00:00 26,0 21,0 18 10 NE - 10
18.07.2019 12:00:00 26,0 22,0 11 6 ENE - 10
18.07.2019 11:00:00 - - - - - - -
18.07.2019 10:00:00 23,0 18,0 18 10 WSW - 10
18.07.2019 09:00:00 22,0 18,0 11 6 WNW - 10
18.07.2019 08:00:00 21,4 17,8 13 7 W 1011,8 20
18.07.2019 07:00:00 22,0 20,0 24 13 W - 10
18.07.2019 06:00:00 23,0 18,0 21 11 W - 10
18.07.2019 05:00:00 23,0 17,9 5 3 W 1011,3 20
18.07.2019 04:00:00 23,0 18,0 11 6 WSW - 10
18.07.2019 03:00:00 24,0 18,0 9 5 WSW - 10
18.07.2019 02:00:00 24,2 15,4 5 3 SW 1012,0 20
18.07.2019 01:00:00 25,0 20,0 8 4 W - 10
18.07.2019 00:00:00 25,0 18,0 4 2 WSW - 10
17.07.2019 23:00:00 25,0 18,7 11 6 N 1012,0 20
17.07.2019 22:00:00 24,0 21,0 8 4 N - 10
17.07.2019 21:00:00 25,0 22,0 9 5 SW - 10
17.07.2019 20:00:00 25,8 22,5 13 7 SSW 1012,3 20
17.07.2019 19:00:00 25,0 22,0 16 9 SW - 10
17.07.2019 18:00:00 27,0 22,0 16 9 SW - 10
17.07.2019 17:00:00 27,0 23,6 21 11 SW 1013,0 20
17.07.2019 16:00:00 27,0 23,0 24 13 SW - 10
17.07.2019 15:00:00 26,0 23,0 21 11 WSW - 10
17.07.2019 14:00:00 26,6 21,9 21 11 SSW 1013,4 20
17.07.2019 13:00:00 27,0 22,0 22 12 SW - 10
17.07.2019 12:00:00 26,0 21,0 18 10 WSW - 10
17.07.2019 11:00:00 24,8 21,0 24 13 WSW 1013,6 20
17.07.2019 10:00:00 24,0 20,0 24 13 WSW - 10
17.07.2019 09:00:00 22,0 19,0 15 8 WSW - 10
17.07.2019 08:00:00 22,0 18,4 11 6 W 1013,6 20
17.07.2019 07:00:00 22,0 18,0 13 7 W - 10
17.07.2019 06:00:00 22,0 18,0 28 15 W - 10
17.07.2019 05:00:00 22,0 18,4 26 14 W 1013,2 20
17.07.2019 04:00:00 - - - - - - -
17.07.2019 03:00:00 22,0 19,0 18 10 W - 10
17.07.2019 02:00:00 22,4 19,3 18 10 WSW 1014,0 20
17.07.2019 01:00:00 22,0 20,0 15 8 WSW - 10
17.07.2019 00:00:00 23,0 20,0 8 4 WSW - 10
16.07.2019 23:00:00 23,2 20,7 5 3 E 1014,0 20
16.07.2019 22:00:00 23,0 21,0 9 5 ENE - 10
16.07.2019 21:00:00 24,0 21,0 15 8 ENE - 10

tt = temperature
td = dewpoint
ff = wind speed
dd = wind direction
ppp = reduced air pressure
vv = visibility

Next stations